* Astronomy

Members Login
Username 
 
Password 
    Remember Me  
Post Info TOPIC: Asteroid 2010 NT1


L

Posts: 131433
Date:
Asteroid 2010 NT1
Permalink  
 


Orbital elements:
2010 NT1 Earth MOID = 0.2063 AU
Epoch 2010 July 23.0 TT = JDT 2455400.5 MPC
M 27.91317 (2000.0) P Q
n 0.56073312 Peri. 306.15018 -0.47036577 +0.62899179
a 1.4564601 Node 283.32201 -0.45407481 -0.77393564
e 0.2174495 Incl. 39.50073 -0.75668495 +0.07343674
P 1.76 H 19.2 G 0.15 U 9

MPEC 2010 - N50


__________________
Page 1 of 1  sorted by
 
Quick Reply

Please log in to post quick replies.



Create your own FREE Forum
Report Abuse
Powered by ActiveBoard